Location: Chakepay
(13.3931°S, 72.1925°W)
Time: 22:29:40
(UTC+00:00)

CZ-4B R/B - Pass Details

Date: 15 November 2019
Orbit: 394 x 468 km, 97.6° (Epoch: 10 December)

Event Time Altitude Azimuth Distance (km) Brightness Sun altitude
Rises 09:19:56 0° 196° (SSW) 2,351 5.1 -12.5°
Reaches altitude 10° 09:22:40 10° 222° (SW) 1,469 3.8 -11.9°
Maximum altitude 09:24:21 14° 255° (WSW) 1,248 3.2 -11.5°
Enters shadow 09:24:27 14° 258° (WSW) 1,248 3.2 -11.5°
